Temperature
12 12 12 12 12 12 12 12 12 12 12 12 12 12 12 11 11 11 11 11 11 10 10 10 10 9 9 9 9 9 9 9 9 9 9 9 9 8 8 8 8 8 8
12 12 12 12 12 11 11 12 12 11 11 11 11 11 11 11 11 11 11 11 10 10 10 10 9 9 9 9 9 9 9 9 9 9 9 8 8 8 8 8 8 8 8
11 11 11 11 11 11 11 11 11 11 11 11 11 11 11 11 11 10 10 10 10 10 10 10 9 9 9 8 8 8 8 8 8 8 8 8 8 8 8 8 8 8 8
11 11 11 11 11 11 11 11 11 11 11 11 11 11 11 10 10 10 10 10 10 9 9 9 9 9 9 8 8 8 8 8 8 8 8 8 8 8 8 8 7 7 7
11 11 11 11 10 10 10 10 10 10 10 10 10 10 10 10 10 10 10 9 9 9 9 9 9 9 8 8 8 8 7 8 8 8 8 8 8 8 7 7 7 7 7
10 10 10 10 10 10 10 10 10 10 10 10 9 9 9 9 9 9 9 9 9 9 8 8 8 8 8 8 8 7 7 7 7 7 7 7 7 7 7 7 7 7 7
9 10 10 10 10 9 9 9 9 9 9 9 9 9 8 8 8 9 9 9 8 8 8 8 8 8 8 8 7 7 7 7 7 7 7 7 7 7 7 7 7 7 6
9 9 9 9 9 9 9 9 9 9 9 8 8 8 7 7 8 8 8 8 8 8 8 7 7 7 7 7 7 7 7 6 6 6 6 6 6 6 6 6 6 6 6
9 9 9 9 9 9 9 8 8 8 8 8 8 7 7 7 7 7 7 7 7 7 7 7 7 7 7 7 7 6 6 6 6 6 6 6 6 6 6 6 6 6 6
8 8 8 8 8 8 8 8 8 8 8 8 7 7 7 7 7 6 6 6 6 6 6 6 6 6 6 6 6 6 6 6 5 5 5 5 5 5 5 5 5 5 5
8 8 8 7 7 7 7 7 7 7 7 7 7 7 7 7 7 6 6 6 6 6 6 6 6 6 6 6 6 6 5 5 5 5 5 5 5 5 5 5 5 5 5
7 7 7 7 7 7 7 7 7 7 7 7 7 7 6 6 6 6 6 5 5 5 5 5 5 5 5 5 5 5 5 5 4 4 4 4 4 4 4 4 4 4 4
6 6 6 6 6 7 7 7 6 7 7 6 6 6 6 6 6 6 5 5 5 5 5 5 5 5 5 5 5 4 4 4 4 4 4 4 4 4 4 4 4 4 4
6 6 6 6 6 6 6 6 6 6 6 6 6 6 6 6 5 5 5 5 4 4 4 4 4 4 4 4 4 4 4 4 3 3 3 3 3 3 3 4 3 4 4
5 5 5 6 6 6 6 6 6 6 6 6 6 5 5 5 5 5 4 4 4 3 3 4 3 4 4 4 4 4 4 3 3 3 3 3 3 3 3 3 3 3 3
5 5 5 5 5 5 5 5 5 5 5 5 5 5 5 4 4 4 4 3 3 3 3 3 3 3 3 3 3 3 3 3 3 3 3 2 3 3 3 3 3 3 3
4 4 4 4 5 5 5 5 5 5 5 4 4 4 4 4 4 4 3 3 3 2 2 2 3 3 3 3 3 3 3 3 3 3 2 2 2 2 2 2 2 2 2
4 4 4 4 4 4 4 4 4 4 4 4 4 4 4 3 3 3 3 3 2 2 2 2 2 2 2 2 2 2 2 2 2 2 2 2 2 2 2 2 2 2 2
3 3 3 3 3 3 4 4 4 4 4 4 4 3 3 3 3 2 2 2 2 2 2 2 2 2 2 2 2 2 2 2 2 2 2 2 2 2 2 2 2 2 2
3 3 3 3 3 3 3 3 3 3 3 3 3 3 3 2 2 2 2 2 2 2 2 1 1 1 1 1 1 1 1 2 1 1 1 1 1 1 1 1 1 1 2
2 2 2 2 2 2 2 2 2 2 2 2 2 2 2 2 2 2 2 2 2 1 1 1 1 1 1 1 1 1 0 1 1 1 1 1 1 1 1 1 1 1 1
2 2 2 2 2 2 2 2 2 2 2 2 2 2 2 2 2 2 1 1 1 1 1 1 0 0 0 0 0 0 -0 -0 -0 1 0 1 1 1 1 1 1 1 1
1 1 1 1 1 1 1 1 1 1 1 1 1 1 1 1 1 1 1 1 1 0 0 0 -0 -0 -0 -0 -0 -0 -0 -0 -0 0 -0 0 0 0 0 0 1 1 1
0 0 0 0 1 1 1 1 1 1 1 1 1 1 1 1 0 0 0 0 0 0 -0 -0 -0 -0 -1 -1 -1 -1 -1 -1 -0 -0 -1 -1 -0 0 0 0 0 0 -0
-1 -1 -0 -0 -0 0 -0 -0 0 0 0 0 0 0 0 0 -0 -0 -0 -0 -0 -0 -0 -1 -1 -1 -1 -1 -1 -1 -1 -1 -1 -1 -1 -1 -1 -0 -0 -0 -0 -0 -0
-1 -1 -1 -1 -1 -1 -1 -1 -1 -0 -0 -0 -0 -0 -0 -0 -0 -1 -1 -1 -1 -1 -1 -1 -1 -1 -1 -1 -1 -1 -1 -2 -2 -2 -1 -1 -1 -1 -1 -1 -1 -1 -1
Wind_Speed
3 3 3 3 3 4 3 3 3 2 1 1 2 3 3 3 4 3 3 4 4 3 3 3 3 3 3 4 4 5 5 5 6 6 7 7 8 8 9 9 9 9 9
4 4 3 3 3 3 4 4 3 2 1 1 1 3 4 4 4 4 4 4 5 4 4 4 4 5 5 5 5 6 6 6 7 7 7 8 8 9 9 10 10 10 10
5 4 3 2 3 4 4 3 3 2 1 1 1 2 3 3 4 4 4 4 4 4 4 5 5 5 6 6 6 7 7 8 8 8 9 10 10 9 10 10 11 12 12
5 4 3 2 3 3 3 2 2 2 2 1 2 2 2 3 3 4 4 4 4 3 4 4 5 6 6 7 8 8 8 9 9 9 10 11 10 10 11 11 12 12 13
5 4 4 3 3 3 2 2 2 2 2 2 2 2 2 2 3 3 3 3 4 4 3 4 4 5 6 7 8 9 9 9 10 10 10 11 11 11 11 11 12 13 13
5 4 4 3 4 2 2 2 2 2 2 2 2 2 2 2 2 3 3 3 3 4 3 3 3 4 6 8 9 9 10 10 10 11 11 11 11 12 11 12 13 13 14
4 4 3 3 3 3 3 3 2 2 1 1 0 2 2 2 2 2 2 2 2 3 3 3 3 3 5 7 9 10 11 11 11 11 11 11 12 12 12 12 12 13 14
5 4 4 4 4 3 3 2 2 1 1 1 1 1 1 2 2 3 2 3 3 2 2 3 4 4 4 5 7 9 11 11 12 12 12 12 12 12 12 12 13 14 14
4 4 3 3 3 3 4 4 4 4 3 2 2 2 2 3 2 2 2 2 2 2 2 3 4 4 5 5 6 7 9 11 12 12 13 13 13 13 13 13 13 14 14
3 3 4 3 3 3 4 4 3 3 4 3 3 2 2 2 2 2 2 2 2 3 3 3 3 4 5 4 6 8 9 10 12 12 13 14 14 14 14 14 14 14 15
3 3 3 3 4 4 4 4 3 3 3 3 3 2 2 1 2 3 3 3 2 3 3 3 3 3 4 4 5 7 9 10 11 12 13 13 14 14 14 15 14 15 15
3 3 4 4 4 4 4 4 4 4 3 3 3 3 3 3 3 3 4 4 4 3 4 3 3 3 3 4 6 8 9 10 11 12 12 13 14 14 15 15 15 15 14
3 4 4 4 4 4 4 4 4 4 3 4 4 3 3 3 2 2 2 3 4 3 3 3 3 2 3 4 6 8 9 10 10 11 12 13 13 14 14 14 15 14 14
4 4 4 4 4 4 4 3 3 4 3 4 4 4 3 3 3 3 3 2 3 4 3 3 2 3 3 4 6 8 7 10 10 11 11 12 13 13 13 13 14 14 13
3 3 4 4 4 3 3 3 3 4 3 4 4 4 3 3 3 3 3 3 3 4 5 4 3 3 4 4 6 5 6 10 10 11 11 11 12 12 12 12 12 12 12
4 3 3 4 4 4 3 3 3 3 3 4 3 4 3 3 3 2 3 3 3 4 5 4 4 4 4 5 7 6 7 10 10 10 11 11 11 11 11 11 11 11 11
4 4 4 4 4 4 4 3 3 3 3 4 4 4 4 3 3 3 3 3 3 3 5 5 4 4 4 5 6 6 6 6 7 10 11 12 11 10 10 10 10 10 10
4 4 4 4 4 3 4 4 4 3 3 4 4 4 4 3 3 3 3 3 3 3 4 7 5 4 4 4 5 6 5 6 7 10 11 11 11 11 10 9 9 9 9
3 3 3 4 3 3 4 3 4 4 3 3 3 4 4 4 4 3 4 4 3 3 3 5 5 4 4 3 4 5 5 5 6 8 9 9 10 10 9 8 8 7 7
2 2 2 2 2 2 3 2 2 2 2 2 2 3 4 4 5 4 3 4 3 3 3 4 5 4 3 3 3 4 5 4 5 6 6 8 9 9 8 8 8 6 6
1 1 1 1 1 2 2 2 2 2 2 2 2 2 3 4 5 4 4 3 3 3 3 3 4 4 3 3 3 3 5 6 6 3 4 5 5 5 6 7 7 6 7
1 1 0 0 1 2 2 2 2 2 3 3 3 2 2 3 4 4 5 5 4 4 4 4 4 5 5 4 4 4 4 5 5 2 3 5 4 4 5 5 7 7 6
0 1 1 1 1 2 2 2 1 1 2 2 3 2 2 2 2 1 2 3 3 4 4 3 4 5 5 5 5 5 5 5 5 4 4 5 3 4 5 6 7 6 6
0 1 2 2 2 2 2 2 1 1 1 2 2 3 3 3 2 2 2 2 2 2 3 3 4 5 5 5 5 5 5 5 5 4 2 3 3 4 5 5 5 4 5
1 1 1 1 1 2 2 2 1 1 1 1 2 2 3 3 3 2 2 2 2 3 3 4 5 5 6 5 4 2 2 2 4 3 1 2 2 3 3 2 3 4 6
1 1 2 2 2 2 3 2 2 1 1 2 2 2 2 2 2 1 1 2 3 3 3 3 4 4 4 4 4 2 2 2 2 3 2 2 2 2 2 2 2 4 4
Wind_Direction
157 154 156 163 159 160 161 162 153 151 153 160 175 166 162 169 182 185 195 201 211 225 241 259 276 288 296 303 308 309 303 305 303 308 309 305 306 308 310 313 309 310 311
163 160 157 164 167 177 179 175 168 169 185 181 202 190 182 180 184 190 196 210 217 224 241 257 268 279 285 290 299 307 303 299 301 299 303 302 298 300 304 306 310 306 306
157 160 157 172 187 180 176 166 158 152 174 197 238 227 193 188 185 186 194 205 217 227 237 251 263 274 281 286 294 300 301 300 297 297 297 299 294 297 300 303 304 306 304
160 159 164 181 179 166 166 175 171 169 201 211 236 246 215 190 194 191 190 200 206 217 237 249 263 276 284 290 292 295 297 300 297 295 294 295 294 293 296 300 302 302 305
163 164 172 178 164 163 172 185 173 176 202 233 245 249 227 212 208 194 191 195 199 206 224 248 261 277 285 290 293 296 297 300 299 296 295 293 297 295 296 299 301 301 302
165 162 174 173 166 164 174 181 184 190 200 222 256 282 263 243 220 206 209 201 202 209 219 233 253 274 283 288 293 294 296 299 301 300 296 294 296 299 297 298 299 300 299
175 170 182 183 179 179 186 186 179 189 219 162 94 323 312 276 244 234 215 208 220 222 218 224 244 262 274 283 290 293 297 297 298 299 300 300 297 300 298 297 298 299 299
188 190 190 191 189 185 187 190 177 191 225 191 163 201 276 298 277 250 238 222 224 221 237 248 250 254 262 274 283 290 293 296 296 298 300 301 300 300 303 301 300 300 300
203 206 201 189 194 191 201 206 199 194 214 240 207 183 187 226 269 272 247 235 228 236 253 250 244 253 266 274 278 286 291 295 296 299 302 304 303 302 304 303 303 302 302
214 211 204 198 197 204 209 216 214 213 198 224 230 213 199 181 193 261 284 266 258 252 250 261 259 262 267 272 279 287 291 291 293 298 300 304 303 304 304 307 304 303 301
222 215 210 207 209 215 218 217 216 222 217 220 207 199 212 218 209 206 255 274 276 260 256 251 252 257 261 267 275 282 288 290 291 295 299 303 304 306 305 307 304 302 301
222 218 217 216 218 221 223 221 212 212 224 224 209 195 193 193 206 203 236 265 273 273 266 259 254 261 265 274 275 287 290 294 296 299 302 303 304 305 304 305 304 304 304
222 216 220 221 222 221 219 215 212 214 221 224 212 210 209 215 207 207 225 258 274 287 282 269 254 264 281 285 280 287 290 295 298 300 302 303 303 303 303 304 307 305 307
223 217 216 219 221 217 216 208 213 218 220 217 221 214 212 217 210 207 204 221 274 286 280 274 275 270 293 294 289 292 296 297 297 298 301 303 303 302 302 301 305 303 306
227 214 219 218 216 209 209 210 215 217 217 217 215 218 221 220 211 213 206 203 214 261 270 273 278 282 307 298 296 300 297 295 295 298 299 301 306 305 302 300 301 303 307
220 213 219 217 216 213 215 214 215 218 215 224 214 209 221 222 207 210 208 217 217 230 261 270 269 288 307 305 302 306 295 297 296 298 299 301 303 307 305 303 300 304 305
204 207 215 216 215 214 212 211 218 216 217 222 215 205 208 207 208 208 209 211 226 228 255 278 279 286 293 303 312 309 302 300 301 300 300 302 302 306 305 303 299 301 303
210 204 211 216 215 214 212 208 218 224 222 220 214 201 206 206 214 210 208 213 225 229 241 268 284 288 285 290 301 299 310 304 302 297 300 301 302 307 304 304 303 301 305
218 211 210 219 221 218 218 219 216 222 229 227 217 209 209 203 226 230 217 220 228 240 244 257 276 284 287 298 306 304 303 305 308 305 302 301 303 306 311 311 309 303 308
218 218 219 218 217 217 216 213 210 205 210 221 218 212 208 207 218 225 231 228 230 240 248 257 272 286 288 295 301 306 309 308 306 314 310 308 309 311 314 318 316 310 307
282 220 221 234 229 236 226 211 200 202 202 220 228 220 215 217 220 227 236 232 226 238 253 264 274 285 290 303 296 299 300 306 302 295 303 308 315 319 321 318 319 320 325
0 6 312 245 264 270 266 264 231 206 209 218 231 233 226 231 235 242 258 261 251 243 249 257 271 275 280 277 282 292 300 307 299 301 308 301 308 300 312 317 317 327 334
43 347 317 300 290 286 291 284 273 244 219 216 222 227 236 240 260 242 269 286 289 283 268 254 260 267 270 266 275 280 279 286 281 287 300 288 290 289 306 314 316 326 338
352 320 309 307 315 318 329 328 318 263 231 233 229 229 227 235 244 238 251 266 276 287 284 272 249 260 265 262 256 267 270 291 293 290 291 282 289 288 308 316 321 342 353
346 333 318 309 305 314 325 310 301 240 243 269 256 234 232 229 238 251 249 259 284 295 307 298 295 293 292 291 289 286 289 295 300 291 284 282 290 304 306 303 330 347 351
324 332 320 307 286 292 307 302 282 221 225 250 262 248 240 239 240 260 233 246 266 281 295 314 321 321 318 309 312 281 255 262 289 286 282 304 297 327 319 306 320 330 340
Height
1512 1513 1514 1515 1515 1516 1517 1518 1519 1519 1520 1520 1520 1520 1520 1520 1520 1519 1519 1519 1518 1518 1517 1516 1516 1515 1514 1513 1513 1512 1510 1509 1508 1507 1506 1505 1504 1502 1501 1499 1498 1496 1494
1510 1511 1511 1513 1513 1514 1515 1516 1517 1517 1518 1518 1518 1518 1517 1517 1517 1517 1517 1516 1516 1515 1515 1514 1513 1513 1512 1511 1510 1509 1508 1507 1506 1505 1503 1502 1501 1500 1498 1496 1495 1493 1491
1507 1508 1509 1510 1511 1512 1513 1514 1514 1515 1515 1516 1515 1515 1515 1514 1514 1514 1514 1514 1513 1513 1512 1511 1511 1510 1509 1508 1507 1507 1505 1504 1503 1502 1501 1499 1498 1496 1495 1493 1491 1490 1488
1504 1505 1506 1507 1508 1509 1510 1511 1511 1512 1512 1512 1512 1512 1512 1511 1511 1511 1511 1511 1510 1510 1509 1508 1508 1507 1506 1505 1504 1504 1503 1501 1500 1499 1497 1496 1494 1493 1491 1490 1488 1486 1484
1501 1502 1503 1504 1505 1506 1507 1508 1508 1509 1509 1509 1509 1509 1509 1508 1508 1508 1507 1507 1507 1506 1506 1505 1505 1504 1503 1502 1501 1500 1499 1498 1497 1496 1494 1493 1491 1489 1487 1486 1484 1482 1480
1498 1499 1500 1501 1501 1502 1503 1504 1505 1506 1506 1506 1505 1505 1505 1504 1504 1504 1504 1504 1503 1503 1502 1502 1501 1500 1499 1498 1497 1496 1495 1494 1493 1492 1491 1489 1487 1485 1483 1482 1480 1478 1476
1495 1495 1496 1497 1497 1498 1499 1501 1501 1502 1502 1502 1502 1501 1501 1501 1500 1500 1500 1500 1499 1499 1499 1498 1497 1496 1495 1494 1493 1492 1491 1490 1489 1488 1486 1485 1483 1481 1479 1477 1475 1474 1472
1491 1492 1493 1493 1494 1495 1496 1496 1497 1497 1498 1499 1498 1498 1497 1497 1496 1496 1496 1495 1495 1495 1495 1494 1493 1492 1491 1490 1489 1488 1487 1486 1485 1483 1482 1480 1479 1477 1475 1473 1471 1469 1467
1488 1488 1489 1490 1491 1491 1492 1492 1493 1493 1493 1494 1494 1495 1493 1491 1492 1491 1491 1491 1491 1491 1491 1490 1489 1488 1487 1486 1484 1483 1482 1481 1480 1479 1477 1476 1474 1472 1470 1468 1466 1464 1462
1484 1485 1486 1486 1487 1488 1489 1489 1489 1489 1489 1489 1489 1490 1490 1489 1489 1487 1487 1487 1487 1487 1486 1486 1485 1484 1483 1481 1480 1479 1478 1477 1475 1474 1473 1471 1469 1467 1465 1463 1461 1459 1457
1479 1480 1482 1482 1483 1484 1485 1485 1485 1485 1485 1485 1484 1484 1485 1485 1485 1484 1482 1482 1482 1483 1482 1482 1481 1480 1478 1477 1476 1475 1473 1472 1470 1469 1467 1466 1464 1462 1460 1458 1456 1454 1452
1474 1475 1477 1478 1479 1480 1481 1481 1481 1481 1481 1481 1480 1480 1480 1480 1480 1480 1479 1477 1477 1478 1478 1477 1477 1475 1474 1473 1472 1470 1469 1467 1465 1464 1462 1460 1458 1457 1455 1452 1450 1448 1446
1469 1470 1473 1474 1475 1476 1476 1477 1477 1477 1477 1476 1476 1476 1476 1477 1477 1476 1476 1474 1473 1473 1473 1473 1472 1471 1470 1469 1467 1466 1464 1462 1460 1459 1457 1455 1453 1451 1449 1447 1445 1443 1441
1465 1466 1468 1469 1471 1471 1472 1472 1472 1472 1472 1472 1471 1472 1472 1472 1472 1472 1472 1472 1470 1469 1469 1468 1468 1467 1466 1465 1463 1461 1459 1458 1456 1453 1451 1450 1447 1445 1443 1441 1440 1438 1436
1461 1462 1463 1465 1466 1467 1467 1467 1467 1467 1467 1467 1467 1467 1468 1468 1468 1468 1468 1469 1469 1466 1464 1463 1463 1462 1462 1460 1459 1457 1454 1452 1451 1449 1446 1444 1442 1440 1437 1435 1434 1433 1431
1457 1458 1459 1460 1461 1462 1463 1463 1463 1463 1463 1463 1463 1463 1463 1464 1464 1464 1464 1465 1464 1463 1461 1459 1459 1458 1457 1456 1454 1452 1450 1448 1446 1444 1442 1439 1437 1434 1432 1430 1429 1428 1426
1453 1454 1455 1456 1457 1458 1458 1459 1458 1459 1458 1458 1458 1458 1458 1459 1460 1460 1460 1460 1460 1459 1457 1455 1455 1454 1453 1451 1449 1448 1446 1444 1441 1439 1437 1435 1432 1430 1428 1426 1424 1423 1421
1450 1451 1451 1452 1453 1453 1454 1454 1454 1454 1454 1454 1454 1454 1455 1455 1455 1456 1456 1456 1455 1455 1454 1452 1450 1450 1449 1447 1445 1443 1441 1439 1437 1435 1433 1430 1428 1425 1423 1421 1420 1418 1417
1446 1447 1448 1448 1449 1449 1450 1450 1450 1450 1450 1450 1450 1450 1451 1451 1451 1452 1452 1451 1451 1451 1450 1449 1446 1445 1444 1443 1441 1439 1437 1435 1433 1431 1428 1426 1423 1421 1419 1417 1416 1414 1413
1442 1443 1444 1444 1445 1445 1445 1445 1446 1446 1446 1446 1447 1447 1447 1447 1447 1447 1448 1447 1447 1446 1446 1444 1443 1441 1440 1438 1437 1435 1432 1430 1428 1426 1424 1422 1419 1417 1415 1413 1411 1409 1409
1438 1439 1440 1440 1441 1441 1441 1442 1442 1442 1442 1442 1442 1443 1443 1443 1443 1444 1444 1443 1443 1442 1441 1440 1439 1437 1436 1434 1433 1431 1428 1426 1424 1422 1419 1417 1415 1413 1411 1409 1407 1405 1404
1435 1436 1436 1437 1437 1437 1438 1438 1438 1438 1438 1438 1438 1439 1439 1439 1440 1440 1440 1439 1439 1439 1437 1436 1435 1434 1432 1431 1429 1427 1425 1423 1420 1419 1416 1414 1412 1410 1408 1406 1404 1402 1401
1432 1433 1433 1434 1434 1434 1434 1434 1434 1435 1434 1434 1435 1435 1435 1436 1436 1436 1436 1435 1435 1435 1434 1433 1431 1430 1428 1427 1426 1424 1422 1420 1417 1415 1413 1410 1408 1406 1405 1403 1401 1399 1398
1430 1430 1430 1431 1431 1431 1431 1431 1431 1431 1431 1431 1431 1432 1432 1432 1433 1433 1432 1432 1431 1430 1430 1429 1428 1426 1425 1424 1422 1421 1419 1416 1414 1412 1411 1407 1405 1403 1402 1400 1399 1398 1396
1427 1427 1428 1428 1428 1428 1428 1428 1428 1428 1427 1427 1428 1428 1429 1429 1429 1429 1429 1428 1427 1426 1426 1425 1424 1423 1421 1420 1418 1417 1415 1412 1410 1408 1408 1405 1403 1401 1399 1397 1397 1396 1395
1425 1425 1425 1426 1426 1425 1425 1425 1425 1425 1424 1424 1425 1425 1425 1425 1426 1426 1426 1425 1424 1423 1422 1421 1420 1419 1418 1416 1415 1413 1412 1410 1408 1406 1405 1403 1401 1399 1397 1396 1395 1394 1393